Location: Newark
(25.6108°S, 54.5803°W)
Time: 09:21:19
(UTC+00:00)

deb Explorer IX - Pass Details

Date: 04 November 2020
Orbit: 538 x 1104 km, 38.8° (Epoch: 23 November)

Event Time Altitude Azimuth Distance (km) Brightness Sun altitude
Rises 22:08:44 0° 234° (SW) 3,310 ? -3.4°
Reaches altitude 10° 22:11:42 10° 223° (SW) 2,271 ? -4.0°
Maximum altitude 22:16:14 29° 163° (SSE) 1,240 ? -5.0°
Drops below altitude 10° 22:20:14 10° 102° (ESE) 1,980 ? -5.8°
Enters shadow 22:21:28 - 95° (E) 2,394 ? -6.1°
Sets 22:22:39 0° 90° (E) 2,815 - -6.3°
